Location: De Har
(53.3413°N, 6.6858°E)
Time: 07:52:25
(UTC+00:00)

Cosmos 1766 Rocket - Pass Details

Date: 22 April 2026
Orbit: 597 x 626 km, 82.5° (Epoch: 15 May)

Event Time Altitude Azimuth Distance (km) Brightness Sun altitude
Rises 02:49:35 0° 346° (NNW) 2,889 7.4 -12.1°
Reaches altitude 10° 02:51:51 10° 342° (NNW) 1,974 6.4 -11.9°
Maximum altitude 02:56:08 58° 264° (W) 709 3.6 -11.4°
Drops below altitude 10° 03:00:21 10° 185° (S) 1,943 5.7 -10.9°
Enters shadow 03:01:44 - 183° (S) 2,498 6.3 -10.7°
